< < Back
Terminal Aerodrome Forecast


Current Version              Previous Versions:   1  2  3  4  5  6  7  8  9  

Terminal Aerodrome Forecast

320
FTUS44 KOHX 291120
TAFCSV
TAF
KCSV 291120Z 2912/3012 36004KT P6SM BKN250
     FM300000 VRB05KT P6SM BKN120
     FM301100 00000KT 5SM -RA OVC025=

Latest METAR

432
SAUS70 KWBC 300100 RRK
MTRCSV
METAR KCSV 300053Z AUTO 02005KT 10SM CLR 22/09 A3003 RMK AO2 SLP150
T02220094


USA.gov is the U.S. government's official web portal to all federal, state and local government web resources and services.